Voltar ao catálogo

STARLINK-30770

AtivoComunicaçõesVLEO
NORAD 58132·PAYLOAD·🇺🇸 United States

Lançado Oct 22, 2023 de Cape Canaveral Space Force Station

Loading…

Próximas Passagens (próximas 24 horas)

TLE

AtualizadoSource: CelesTrak SupGP

Época: Sep 15, 2026, 01:57 UTC

1 58132C 23162Q   26258.08173611  .00035090  00000+0  12710-2 0  2580
2 58132  42.9996 142.9599 0001488 276.2575 359.2970 15.27559128    15

Acompanhe STARLINK-30770 em tempo real com AllMySat

Download on the App Store